Year,Month,Day,Hour,Minute,Value (Times are PST for insolation in W/m^2)
2016,11,08,00,00,0.00
2016,11,08,00,01,0.00
2016,11,08,00,02,0.00
2016,11,08,00,03,0.00
2016,11,08,00,04,0.00
2016,11,08,00,05,0.00
2016,11,08,00,06,0.00
2016,11,08,00,07,0.00
2016,11,08,00,08,0.00
2016,11,08,00,09,0.00
2016,11,08,00,10,0.00
2016,11,08,00,11,0.00
2016,11,08,00,12,0.00
2016,11,08,00,13,0.00
2016,11,08,00,14,0.00
2016,11,08,00,15,0.00
2016,11,08,00,16,0.00
2016,11,08,00,17,0.00
2016,11,08,00,18,0.00
2016,11,08,00,19,0.00
2016,11,08,00,20,0.00
2016,11,08,00,21,0.00
2016,11,08,00,22,0.00
2016,11,08,00,23,0.00
2016,11,08,00,24,0.00
2016,11,08,00,25,0.00
2016,11,08,00,26,0.00
2016,11,08,00,27,0.00
2016,11,08,00,28,0.00
2016,11,08,00,29,0.00
2016,11,08,00,30,0.00
2016,11,08,00,31,0.00
2016,11,08,00,32,0.00
2016,11,08,00,33,0.00
2016,11,08,00,34,0.00
2016,11,08,00,35,0.00
2016,11,08,00,36,0.00
2016,11,08,00,37,0.00
2016,11,08,00,38,0.00
2016,11,08,00,39,0.00
2016,11,08,00,40,0.00
2016,11,08,00,41,0.00
2016,11,08,00,42,0.00
2016,11,08,00,43,0.00
2016,11,08,00,44,0.00
2016,11,08,00,45,0.00
2016,11,08,00,46,0.00
2016,11,08,00,47,0.00
2016,11,08,00,48,0.00
2016,11,08,00,49,0.00
2016,11,08,00,50,0.00
2016,11,08,00,51,0.00
2016,11,08,00,52,0.00
2016,11,08,00,53,0.00
2016,11,08,00,54,0.00
2016,11,08,00,55,0.00
2016,11,08,00,56,0.00
2016,11,08,00,57,0.00
2016,11,08,00,58,0.00
2016,11,08,00,59,0.00
2016,11,08,01,00,0.00
2016,11,08,01,01,0.00
2016,11,08,01,02,0.00
2016,11,08,01,03,0.00
2016,11,08,01,04,0.00
2016,11,08,01,05,0.00
2016,11,08,01,06,0.00
2016,11,08,01,07,0.00
2016,11,08,01,08,0.00
2016,11,08,01,09,0.00
2016,11,08,01,10,0.00
2016,11,08,01,11,0.00
2016,11,08,01,12,0.00
2016,11,08,01,13,0.00
2016,11,08,01,14,0.00
2016,11,08,01,15,0.00
2016,11,08,01,16,0.00
2016,11,08,01,17,0.00
2016,11,08,01,18,0.00
2016,11,08,01,19,0.00
2016,11,08,01,20,0.00
2016,11,08,01,21,0.00
2016,11,08,01,22,0.00
2016,11,08,01,23,0.00
2016,11,08,01,24,0.00
2016,11,08,01,25,0.00
2016,11,08,01,26,0.00
2016,11,08,01,27,0.00
2016,11,08,01,28,0.00
2016,11,08,01,29,0.00
2016,11,08,01,30,0.00
2016,11,08,01,31,0.00
2016,11,08,01,32,0.00
2016,11,08,01,33,0.00
2016,11,08,01,34,0.00
2016,11,08,01,35,0.00
2016,11,08,01,36,0.00
2016,11,08,01,37,0.00
2016,11,08,01,38,0.00
2016,11,08,01,39,0.00
2016,11,08,01,40,0.00
2016,11,08,01,41,0.00
2016,11,08,01,42,0.00
2016,11,08,01,43,0.00
2016,11,08,01,44,0.00
2016,11,08,01,45,0.00
2016,11,08,01,46,0.00
2016,11,08,01,47,0.00
2016,11,08,01,48,0.00
2016,11,08,01,49,0.00
2016,11,08,01,50,0.00
2016,11,08,01,51,0.00
2016,11,08,01,52,0.00
2016,11,08,01,53,0.00
2016,11,08,01,54,0.00
2016,11,08,01,55,0.00
2016,11,08,01,56,0.00
2016,11,08,01,57,0.00
2016,11,08,01,58,0.00
2016,11,08,01,59,0.00
2016,11,08,02,00,0.00
2016,11,08,02,01,0.00
2016,11,08,02,02,0.00
2016,11,08,02,03,0.00
2016,11,08,02,04,0.00
2016,11,08,02,05,0.00
2016,11,08,02,06,0.00
2016,11,08,02,07,0.00
2016,11,08,02,08,0.00
2016,11,08,02,09,0.00
2016,11,08,02,10,0.00
2016,11,08,02,11,0.00
2016,11,08,02,12,0.00
2016,11,08,02,13,0.00
2016,11,08,02,14,0.00
2016,11,08,02,15,0.00
2016,11,08,02,16,0.00
2016,11,08,02,17,0.00
2016,11,08,02,18,0.00
2016,11,08,02,19,0.00
2016,11,08,02,20,0.00
2016,11,08,02,21,0.00
2016,11,08,02,22,0.00
2016,11,08,02,23,0.00
2016,11,08,02,24,0.00
2016,11,08,02,25,0.00
2016,11,08,02,26,0.00
2016,11,08,02,27,0.00
2016,11,08,02,28,0.00
2016,11,08,02,29,0.00
2016,11,08,02,30,0.00
2016,11,08,02,31,0.00
2016,11,08,02,32,0.00
2016,11,08,02,33,0.00
2016,11,08,02,34,0.00
2016,11,08,02,35,0.00
2016,11,08,02,36,0.00
2016,11,08,02,37,0.00
2016,11,08,02,38,0.00
2016,11,08,02,39,0.00
2016,11,08,02,40,0.00
2016,11,08,02,41,0.00
2016,11,08,02,42,0.00
2016,11,08,02,43,0.00
2016,11,08,02,44,0.00
2016,11,08,02,45,0.00
2016,11,08,02,46,0.00
2016,11,08,02,47,0.00
2016,11,08,02,48,0.00
2016,11,08,02,49,0.00
2016,11,08,02,50,0.00
2016,11,08,02,51,0.00
2016,11,08,02,52,0.00
2016,11,08,02,53,0.00
2016,11,08,02,54,0.00
2016,11,08,02,55,0.00
2016,11,08,02,56,0.00
2016,11,08,02,57,0.00
2016,11,08,02,58,0.00
2016,11,08,02,59,0.00
2016,11,08,03,00,0.00
2016,11,08,03,01,0.00
2016,11,08,03,02,0.00
2016,11,08,03,03,0.00
2016,11,08,03,04,0.00
2016,11,08,03,05,0.00
2016,11,08,03,06,0.00
2016,11,08,03,07,0.00
2016,11,08,03,08,0.00
2016,11,08,03,09,0.00
2016,11,08,03,10,0.00
2016,11,08,03,11,0.00
2016,11,08,03,12,0.00
2016,11,08,03,13,0.00
2016,11,08,03,14,0.00
2016,11,08,03,15,0.00
2016,11,08,03,16,0.00
2016,11,08,03,17,0.00
2016,11,08,03,18,0.00
2016,11,08,03,19,0.00
2016,11,08,03,20,0.00
2016,11,08,03,21,0.00
2016,11,08,03,22,0.00
2016,11,08,03,23,0.00
2016,11,08,03,24,0.00
2016,11,08,03,25,0.00
2016,11,08,03,26,0.00
2016,11,08,03,27,0.00
2016,11,08,03,28,0.00
2016,11,08,03,29,0.00
2016,11,08,03,30,0.00
2016,11,08,03,31,0.00
2016,11,08,03,32,0.00
2016,11,08,03,33,0.00
2016,11,08,03,34,0.00
2016,11,08,03,35,0.00
2016,11,08,03,36,0.00
2016,11,08,03,37,0.00
2016,11,08,03,38,0.00
2016,11,08,03,39,0.00
2016,11,08,03,40,0.00
2016,11,08,03,41,0.00
2016,11,08,03,42,0.00
2016,11,08,03,43,0.00
2016,11,08,03,44,0.00
2016,11,08,03,45,0.00
2016,11,08,03,46,0.00
2016,11,08,03,47,0.00
2016,11,08,03,48,0.00
2016,11,08,03,49,0.00
2016,11,08,03,50,0.00
2016,11,08,03,51,0.00
2016,11,08,03,52,0.00
2016,11,08,03,53,0.00
2016,11,08,03,54,0.00
2016,11,08,03,55,0.00
2016,11,08,03,56,0.00
2016,11,08,03,57,0.00
2016,11,08,03,58,0.00
2016,11,08,03,59,0.00
2016,11,08,04,00,0.00
2016,11,08,04,01,0.00
2016,11,08,04,02,0.00
2016,11,08,04,03,0.00
2016,11,08,04,04,0.00
2016,11,08,04,05,0.00
2016,11,08,04,06,0.00
2016,11,08,04,07,0.00
2016,11,08,04,08,0.00
2016,11,08,04,09,0.00
2016,11,08,04,10,0.00
2016,11,08,04,11,0.00
2016,11,08,04,12,0.00
2016,11,08,04,13,0.00
2016,11,08,04,14,0.00
2016,11,08,04,15,0.00
2016,11,08,04,16,0.00
2016,11,08,04,17,0.00
2016,11,08,04,18,0.00
2016,11,08,04,19,0.00
2016,11,08,04,20,0.00
2016,11,08,04,21,0.00
2016,11,08,04,22,0.00
2016,11,08,04,23,0.00
2016,11,08,04,24,0.00
2016,11,08,04,25,0.00
2016,11,08,04,26,0.00
2016,11,08,04,27,0.00
2016,11,08,04,28,0.00
2016,11,08,04,29,0.00
2016,11,08,04,30,0.00
2016,11,08,04,31,0.00
2016,11,08,04,32,0.00
2016,11,08,04,33,0.00
2016,11,08,04,34,0.00
2016,11,08,04,35,0.00
2016,11,08,04,36,0.00
2016,11,08,04,37,0.00
2016,11,08,04,38,0.00
2016,11,08,04,39,0.00
2016,11,08,04,40,0.00
2016,11,08,04,41,0.00
2016,11,08,04,42,0.00
2016,11,08,04,43,0.00
2016,11,08,04,44,0.00
2016,11,08,04,45,0.00
2016,11,08,04,46,0.00
2016,11,08,04,47,0.00
2016,11,08,04,48,0.00
2016,11,08,04,49,0.00
2016,11,08,04,50,0.00
2016,11,08,04,51,0.00
2016,11,08,04,52,0.00
2016,11,08,04,53,0.00
2016,11,08,04,54,0.00
2016,11,08,04,55,0.00
2016,11,08,04,56,0.00
2016,11,08,04,57,0.00
2016,11,08,04,58,0.00
2016,11,08,04,59,0.00
2016,11,08,05,00,0.00
2016,11,08,05,01,0.00
2016,11,08,05,02,0.00
2016,11,08,05,03,0.00
2016,11,08,05,04,0.00
2016,11,08,05,05,0.00
2016,11,08,05,06,0.00
2016,11,08,05,07,0.00
2016,11,08,05,08,0.00
2016,11,08,05,09,0.00
2016,11,08,05,10,0.00
2016,11,08,05,11,0.00
2016,11,08,05,12,0.00
2016,11,08,05,13,0.00
2016,11,08,05,14,0.00
2016,11,08,05,15,0.00
2016,11,08,05,16,0.00
2016,11,08,05,17,0.00
2016,11,08,05,18,0.00
2016,11,08,05,19,0.00
2016,11,08,05,20,0.00
2016,11,08,05,21,0.00
2016,11,08,05,22,0.00
2016,11,08,05,23,0.00
2016,11,08,05,24,0.00
2016,11,08,05,25,0.00
2016,11,08,05,26,0.00
2016,11,08,05,27,0.00
2016,11,08,05,28,0.00
2016,11,08,05,29,0.00
2016,11,08,05,30,0.00
2016,11,08,05,31,0.00
2016,11,08,05,32,0.00
2016,11,08,05,33,0.00
2016,11,08,05,34,0.00
2016,11,08,05,35,0.00
2016,11,08,05,36,0.00
2016,11,08,05,37,0.00
2016,11,08,05,38,0.00
2016,11,08,05,39,0.00
2016,11,08,05,40,0.00
2016,11,08,05,41,0.00
2016,11,08,05,42,0.00
2016,11,08,05,43,0.00
2016,11,08,05,44,0.00
2016,11,08,05,45,0.00
2016,11,08,05,46,0.00
2016,11,08,05,47,0.00
2016,11,08,05,48,0.00
2016,11,08,05,49,0.00
2016,11,08,05,50,0.00
2016,11,08,05,51,0.00
2016,11,08,05,52,0.00
2016,11,08,05,53,0.00
2016,11,08,05,54,0.00
2016,11,08,05,55,0.00
2016,11,08,05,56,0.00
2016,11,08,05,57,0.00
2016,11,08,05,58,0.00
2016,11,08,05,59,0.00
2016,11,08,06,00,0.00
2016,11,08,06,01,0.00
2016,11,08,06,02,0.00
2016,11,08,06,03,0.00
2016,11,08,06,04,0.00
2016,11,08,06,05,0.00
2016,11,08,06,06,0.00
2016,11,08,06,07,0.00
2016,11,08,06,08,0.00
2016,11,08,06,09,0.00
2016,11,08,06,10,0.00
2016,11,08,06,11,0.00
2016,11,08,06,12,0.00
2016,11,08,06,13,0.00
2016,11,08,06,14,0.00
2016,11,08,06,15,0.00
2016,11,08,06,16,0.00
2016,11,08,06,17,0.00
2016,11,08,06,18,0.00
2016,11,08,06,19,0.00
2016,11,08,06,20,0.00
2016,11,08,06,21,0.00
2016,11,08,06,22,0.00
2016,11,08,06,23,0.00
2016,11,08,06,24,0.00
2016,11,08,06,25,0.00
2016,11,08,06,26,0.00
2016,11,08,06,27,0.00
2016,11,08,06,28,0.00
2016,11,08,06,29,0.00
2016,11,08,06,30,0.00
2016,11,08,06,31,0.00
2016,11,08,06,32,0.00
2016,11,08,06,33,0.00
2016,11,08,06,34,0.00
2016,11,08,06,35,0.00
2016,11,08,06,36,0.00
2016,11,08,06,37,0.00
2016,11,08,06,38,0.00
2016,11,08,06,39,0.00
2016,11,08,06,40,0.00
2016,11,08,06,41,0.00
2016,11,08,06,42,0.00
2016,11,08,06,43,0.00
2016,11,08,06,44,0.00
2016,11,08,06,45,0.00
2016,11,08,06,46,0.00
2016,11,08,06,47,0.00
2016,11,08,06,48,0.00
2016,11,08,06,49,0.00
2016,11,08,06,50,0.00
2016,11,08,06,51,0.00
2016,11,08,06,52,0.00
2016,11,08,06,53,0.00
2016,11,08,06,54,0.00
2016,11,08,06,55,0.00
2016,11,08,06,56,0.00
2016,11,08,06,57,0.00
2016,11,08,06,58,0.00
2016,11,08,06,59,0.00
2016,11,08,07,00,0.00
2016,11,08,07,01,0.00
2016,11,08,07,02,0.00
2016,11,08,07,03,0.00
2016,11,08,07,04,0.00
2016,11,08,07,05,0.00
2016,11,08,07,06,0.00
2016,11,08,07,07,0.00
2016,11,08,07,08,0.00
2016,11,08,07,09,0.00
2016,11,08,07,10,0.00
2016,11,08,07,11,0.00
2016,11,08,07,12,0.00
2016,11,08,07,13,0.00
2016,11,08,07,14,3.30
2016,11,08,07,15,5.00
2016,11,08,07,16,6.60
2016,11,08,07,17,7.00
2016,11,08,07,18,7.00
2016,11,08,07,19,7.10
2016,11,08,07,20,9.20
2016,11,08,07,21,11.00
2016,11,08,07,22,11.20
2016,11,08,07,23,12.00
2016,11,08,07,24,12.70
2016,11,08,07,25,14.00
2016,11,08,07,26,14.00
2016,11,08,07,27,12.90
2016,11,08,07,28,12.00
2016,11,08,07,29,12.00
2016,11,08,07,30,12.00
2016,11,08,07,31,12.00
2016,11,08,07,32,12.00
2016,11,08,07,33,11.10
2016,11,08,07,34,11.00
2016,11,08,07,35,12.00
2016,11,08,07,36,12.00
2016,11,08,07,37,12.00
2016,11,08,07,38,12.00
2016,11,08,07,39,12.00
2016,11,08,07,40,12.90
2016,11,08,07,41,14.00
2016,11,08,07,42,14.00
2016,11,08,07,43,14.00
2016,11,08,07,44,14.00
2016,11,08,07,45,15.50
2016,11,08,07,46,17.60
2016,11,08,07,47,18.90
2016,11,08,07,48,20.90
2016,11,08,07,49,21.10
2016,11,08,07,50,23.30
2016,11,08,07,51,24.60
2016,11,08,07,52,23.00
2016,11,08,07,53,23.00
2016,11,08,07,54,23.00
2016,11,08,07,55,23.00
2016,11,08,07,56,23.00
2016,11,08,07,57,21.90
2016,11,08,07,58,21.00
2016,11,08,07,59,21.00
2016,11,08,08,00,21.00
2016,11,08,08,01,22.60
2016,11,08,08,02,24.70
2016,11,08,08,03,23.10
2016,11,08,08,04,19.00
2016,11,08,08,05,18.10
2016,11,08,08,06,19.00
2016,11,08,08,07,20.00
2016,11,08,08,08,23.60
2016,11,08,08,09,25.40
2016,11,08,08,10,26.90
2016,11,08,08,11,28.00
2016,11,08,08,12,30.20
2016,11,08,08,13,32.60
2016,11,08,08,14,34.30
2016,11,08,08,15,36.50
2016,11,08,08,16,39.40
2016,11,08,08,17,45.10
2016,11,08,08,18,48.70
2016,11,08,08,19,49.00
2016,11,08,08,20,48.80
2016,11,08,08,21,46.80
2016,11,08,08,22,46.00
2016,11,08,08,23,46.30
2016,11,08,08,24,47.80
2016,11,08,08,25,51.10
2016,11,08,08,26,56.00
2016,11,08,08,27,60.30
2016,11,08,08,28,63.90
2016,11,08,08,29,65.00
2016,11,08,08,30,62.70
2016,11,08,08,31,60.40
2016,11,08,08,32,56.50
2016,11,08,08,33,54.10
2016,11,08,08,34,52.80
2016,11,08,08,35,49.00
2016,11,08,08,36,48.60
2016,11,08,08,37,46.80
2016,11,08,08,38,46.30
2016,11,08,08,39,47.70
2016,11,08,08,40,51.10
2016,11,08,08,41,55.90
2016,11,08,08,42,60.20
2016,11,08,08,43,63.90
2016,11,08,08,44,65.00
2016,11,08,08,45,68.00
2016,11,08,08,46,69.00
2016,11,08,08,47,67.30
2016,11,08,08,48,69.90
2016,11,08,08,49,69.70
2016,11,08,08,50,63.00
2016,11,08,08,51,64.10
2016,11,08,08,52,69.00
2016,11,08,08,53,68.40
2016,11,08,08,54,66.30
2016,11,08,08,55,64.10
2016,11,08,08,56,64.00
2016,11,08,08,57,66.10
2016,11,08,08,58,64.50
2016,11,08,08,59,63.00
2016,11,08,09,00,63.00
2016,11,08,09,01,58.80
2016,11,08,09,02,54.50
2016,11,08,09,03,59.70
2016,11,08,09,04,62.10
2016,11,08,09,05,65.40
2016,11,08,09,06,69.20
2016,11,08,09,07,69.30
2016,11,08,09,08,64.40
2016,11,08,09,09,55.50
2016,11,08,09,10,52.30
2016,11,08,09,11,55.90
2016,11,08,09,12,56.90
2016,11,08,09,13,56.00
2016,11,08,09,14,56.00
2016,11,08,09,15,47.30
2016,11,08,09,16,45.60
2016,11,08,09,17,50.30
2016,11,08,09,18,57.40
2016,11,08,09,19,63.20
2016,11,08,09,20,67.20
2016,11,08,09,21,72.10
2016,11,08,09,22,84.30
2016,11,08,09,23,75.00
2016,11,08,09,24,62.50
2016,11,08,09,25,56.30
2016,11,08,09,26,51.50
2016,11,08,09,27,51.30
2016,11,08,09,28,56.10
2016,11,08,09,29,53.00
2016,11,08,09,30,49.50
2016,11,08,09,31,49.00
2016,11,08,09,32,40.40
2016,11,08,09,33,35.40
2016,11,08,09,34,37.10
2016,11,08,09,35,40.00
2016,11,08,09,36,39.80
2016,11,08,09,37,40.90
2016,11,08,09,38,52.10
2016,11,08,09,39,71.50
2016,11,08,09,40,85.10
2016,11,08,09,41,85.60
2016,11,08,09,42,79.70
2016,11,08,09,43,83.80
2016,11,08,09,44,90.00
2016,11,08,09,45,97.50
2016,11,08,09,46,100.00
2016,11,08,09,47,106.00
2016,11,08,09,48,107.00
2016,11,08,09,49,113.40
2016,11,08,09,50,122.20
2016,11,08,09,51,131.00
2016,11,08,09,52,135.00
2016,11,08,09,53,135.00
2016,11,08,09,54,135.00
2016,11,08,09,55,140.70
2016,11,08,09,56,149.90
2016,11,08,09,57,148.30
2016,11,08,09,58,137.60
2016,11,08,09,59,127.30
2016,11,08,10,00,121.40
2016,11,08,10,01,107.90
2016,11,08,10,02,93.00
2016,11,08,10,03,88.10
2016,11,08,10,04,83.20
2016,11,08,10,05,66.50
2016,11,08,10,06,66.40
2016,11,08,10,07,89.30
2016,11,08,10,08,104.50
2016,11,08,10,09,99.90
2016,11,08,10,10,74.00
2016,11,08,10,11,80.50
2016,11,08,10,12,88.10
2016,11,08,10,13,69.90
2016,11,08,10,14,55.20
2016,11,08,10,15,71.30
2016,11,08,10,16,115.90
2016,11,08,10,17,137.00
2016,11,08,10,18,153.50
2016,11,08,10,19,132.20
2016,11,08,10,20,94.60
2016,11,08,10,21,69.10
2016,11,08,10,22,54.80
2016,11,08,10,23,51.90
2016,11,08,10,24,59.80
2016,11,08,10,25,83.70
2016,11,08,10,26,107.70
2016,11,08,10,27,109.30
2016,11,08,10,28,90.10
2016,11,08,10,29,77.70
2016,11,08,10,30,66.50
2016,11,08,10,31,67.90
2016,11,08,10,32,101.60
2016,11,08,10,33,102.50
2016,11,08,10,34,67.30
2016,11,08,10,35,74.00
2016,11,08,10,36,74.00
2016,11,08,10,37,77.80
2016,11,08,10,38,94.90
2016,11,08,10,39,109.20
2016,11,08,10,40,117.50
2016,11,08,10,41,113.00
2016,11,08,10,42,86.70
2016,11,08,10,43,83.60
2016,11,08,10,44,90.70
2016,11,08,10,45,87.20
2016,11,08,10,46,80.30
2016,11,08,10,47,74.70
2016,11,08,10,48,90.20
2016,11,08,10,49,109.10
2016,11,08,10,50,111.50
2016,11,08,10,51,117.70
2016,11,08,10,52,120.10
2016,11,08,10,53,87.00
2016,11,08,10,54,71.40
2016,11,08,10,55,86.90
2016,11,08,10,56,104.00
2016,11,08,10,57,104.00
2016,11,08,10,58,104.00
2016,11,08,10,59,126.50
2016,11,08,11,00,127.90
2016,11,08,11,01,113.70
2016,11,08,11,02,145.50
2016,11,08,11,03,144.30
2016,11,08,11,04,85.20
2016,11,08,11,05,68.50
2016,11,08,11,06,72.80
2016,11,08,11,07,100.70
2016,11,08,11,08,92.50
2016,11,08,11,09,90.80
2016,11,08,11,10,65.30
2016,11,08,11,11,48.00
2016,11,08,11,12,56.40
2016,11,08,11,13,62.60
2016,11,08,11,14,73.90
2016,11,08,11,15,79.00
2016,11,08,11,16,60.40
2016,11,08,11,17,44.10
2016,11,08,11,18,40.20
2016,11,08,11,19,40.00
2016,11,08,11,20,40.70
2016,11,08,11,21,48.60
2016,11,08,11,22,59.20
2016,11,08,11,23,62.00
2016,11,08,11,24,61.90
2016,11,08,11,25,73.10
2016,11,08,11,26,83.50
2016,11,08,11,27,79.00
2016,11,08,11,28,86.20
2016,11,08,11,29,93.00
2016,11,08,11,30,90.80
2016,11,08,11,31,79.50
2016,11,08,11,32,98.60
2016,11,08,11,33,122.00
2016,11,08,11,34,144.00
2016,11,08,11,35,104.50
2016,11,08,11,36,104.20
2016,11,08,11,37,122.30
2016,11,08,11,38,114.30
2016,11,08,11,39,105.40
2016,11,08,11,40,102.40
2016,11,08,11,41,96.50
2016,11,08,11,42,95.70
2016,11,08,11,43,74.90
2016,11,08,11,44,80.30
2016,11,08,11,45,98.70
2016,11,08,11,46,115.00
2016,11,08,11,47,124.00
2016,11,08,11,48,140.50
2016,11,08,11,49,142.60
2016,11,08,11,50,114.90
2016,11,08,11,51,116.60
2016,11,08,11,52,88.00
2016,11,08,11,53,100.60
2016,11,08,11,54,127.50
2016,11,08,11,55,132.90
2016,11,08,11,56,129.40
2016,11,08,11,57,108.80
2016,11,08,11,58,115.00
2016,11,08,11,59,149.20
2016,11,08,12,00,226.70
2016,11,08,12,01,246.00
2016,11,08,12,02,246.00
2016,11,08,12,03,246.00
2016,11,08,12,04,121.50
2016,11,08,12,05,134.00
2016,11,08,12,06,155.50
2016,11,08,12,07,170.30
2016,11,08,12,08,175.00
2016,11,08,12,09,151.30
2016,11,08,12,10,125.00
2016,11,08,12,11,127.50
2016,11,08,12,12,155.10
2016,11,08,12,13,176.10
2016,11,08,12,14,199.40
2016,11,08,12,15,180.00
2016,11,08,12,16,136.20
2016,11,08,12,17,111.60
2016,11,08,12,18,162.20
2016,11,08,12,19,165.70
2016,11,08,12,20,171.20
2016,11,08,12,21,107.30
2016,11,08,12,22,101.70
2016,11,08,12,23,114.70
2016,11,08,12,24,131.50
2016,11,08,12,25,132.10
2016,11,08,12,26,144.00
2016,11,08,12,27,145.20
2016,11,08,12,28,169.20
2016,11,08,12,29,190.00
2016,11,08,12,30,165.10
2016,11,08,12,31,125.00
2016,11,08,12,32,106.10
2016,11,08,12,33,110.40
2016,11,08,12,34,116.10
2016,11,08,12,35,116.30
2016,11,08,12,36,103.40
2016,11,08,12,37,125.90
2016,11,08,12,38,154.80
2016,11,08,12,39,169.90
2016,11,08,12,40,159.10
2016,11,08,12,41,114.80
2016,11,08,12,42,89.80
2016,11,08,12,43,91.70
2016,11,08,12,44,117.70
2016,11,08,12,45,141.10
2016,11,08,12,46,127.40
2016,11,08,12,47,101.60
2016,11,08,12,48,103.40
2016,11,08,12,49,132.00
2016,11,08,12,50,90.00
2016,11,08,12,51,79.30
2016,11,08,12,52,72.00
2016,11,08,12,53,73.40
2016,11,08,12,54,75.90
2016,11,08,12,55,71.90
2016,11,08,12,56,69.50
2016,11,08,12,57,78.70
2016,11,08,12,58,79.80
2016,11,08,12,59,79.30
2016,11,08,13,00,84.60
2016,11,08,13,01,87.60
2016,11,08,13,02,78.60
2016,11,08,13,03,74.30
2016,11,08,13,04,74.10
2016,11,08,13,05,76.10
2016,11,08,13,06,78.10
2016,11,08,13,07,92.50
2016,11,08,13,08,123.60
2016,11,08,13,09,113.60
2016,11,08,13,10,90.10
2016,11,08,13,11,96.50
2016,11,08,13,12,127.00
2016,11,08,13,13,125.90
2016,11,08,13,14,102.00
2016,11,08,13,15,88.50
2016,11,08,13,16,116.00
2016,11,08,13,17,107.60
2016,11,08,13,18,91.40
2016,11,08,13,19,75.50
2016,11,08,13,20,65.00
2016,11,08,13,21,65.00
2016,11,08,13,22,64.30
2016,11,08,13,23,63.40
2016,11,08,13,24,68.90
2016,11,08,13,25,67.70
2016,11,08,13,26,69.00
2016,11,08,13,27,76.60
2016,11,08,13,28,76.40
2016,11,08,13,29,76.70
2016,11,08,13,30,73.20
2016,11,08,13,31,69.60
2016,11,08,13,32,73.20
2016,11,08,13,33,69.50
2016,11,08,13,34,59.80
2016,11,08,13,35,56.70
2016,11,08,13,36,64.10
2016,11,08,13,37,68.00
2016,11,08,13,38,66.30
2016,11,08,13,39,76.70
2016,11,08,13,40,90.60
2016,11,08,13,41,83.00
2016,11,08,13,42,76.00
2016,11,08,13,43,70.40
2016,11,08,13,44,63.60
2016,11,08,13,45,65.80
2016,11,08,13,46,63.80
2016,11,08,13,47,78.40
2016,11,08,13,48,83.70
2016,11,08,13,49,76.70
2016,11,08,13,50,70.00
2016,11,08,13,51,70.00
2016,11,08,13,52,69.30
2016,11,08,13,53,66.40
2016,11,08,13,54,65.00
2016,11,08,13,55,65.00
2016,11,08,13,56,61.50
2016,11,08,13,57,55.70
2016,11,08,13,58,54.00
2016,11,08,13,59,56.70
2016,11,08,14,00,58.00
2016,11,08,14,01,54.80
2016,11,08,14,02,54.00
2016,11,08,14,03,54.00
2016,11,08,14,04,52.90
2016,11,08,14,05,50.50
2016,11,08,14,06,47.00
2016,11,08,14,07,47.50
2016,11,08,14,08,49.70
2016,11,08,14,09,52.10
2016,11,08,14,10,54.00
2016,11,08,14,11,50.50
2016,11,08,14,12,47.00
2016,11,08,14,13,47.00
2016,11,08,14,14,47.00
2016,11,08,14,15,46.20
2016,11,08,14,16,46.80
2016,11,08,14,17,46.10
2016,11,08,14,18,40.50
2016,11,08,14,19,36.70
2016,11,08,14,20,29.80
2016,11,08,14,21,28.00
2016,11,08,14,22,28.50
2016,11,08,14,23,30.00
2016,11,08,14,24,30.00
2016,11,08,14,25,28.30
2016,11,08,14,26,26.00
2016,11,08,14,27,24.30
2016,11,08,14,28,24.20
2016,11,08,14,29,28.40
2016,11,08,14,30,32.30
2016,11,08,14,31,30.60
2016,11,08,14,32,24.00
2016,11,08,14,33,23.00
2016,11,08,14,34,23.00
2016,11,08,14,35,23.00
2016,11,08,14,36,23.40
2016,11,08,14,37,25.20
2016,11,08,14,38,26.50
2016,11,08,14,39,28.70
2016,11,08,14,40,30.90
2016,11,08,14,41,31.00
2016,11,08,14,42,27.80
2016,11,08,14,43,25.40
2016,11,08,14,44,22.30
2016,11,08,14,45,22.50
2016,11,08,14,46,24.60
2016,11,08,14,47,25.00
2016,11,08,14,48,21.20
2016,11,08,14,49,19.10
2016,11,08,14,50,21.20
2016,11,08,14,51,22.60
2016,11,08,14,52,20.50
2016,11,08,14,53,19.00
2016,11,08,14,54,18.60
2016,11,08,14,55,18.40
2016,11,08,14,56,20.00
2016,11,08,14,57,21.00
2016,11,08,14,58,19.80
2016,11,08,14,59,18.30
2016,11,08,15,00,16.50
2016,11,08,15,01,14.40
2016,11,08,15,02,14.00
2016,11,08,15,03,14.00
2016,11,08,15,04,16.10
2016,11,08,15,05,18.40
2016,11,08,15,06,21.30
2016,11,08,15,07,23.50
2016,11,08,15,08,25.30
2016,11,08,15,09,27.50
2016,11,08,15,10,30.90
2016,11,08,15,11,32.00
2016,11,08,15,12,32.60
2016,11,08,15,13,32.40
2016,11,08,15,14,32.00
2016,11,08,15,15,32.80
2016,11,08,15,16,33.00
2016,11,08,15,17,33.00
2016,11,08,15,18,28.50
2016,11,08,15,19,22.90
2016,11,08,15,20,21.00
2016,11,08,15,21,21.00
2016,11,08,15,22,21.00
2016,11,08,15,23,21.60
2016,11,08,15,24,23.00
2016,11,08,15,25,23.90
2016,11,08,15,26,25.00
2016,11,08,15,27,25.50
2016,11,08,15,28,24.10
2016,11,08,15,29,23.00
2016,11,08,15,30,23.00
2016,11,08,15,31,19.90
2016,11,08,15,32,16.50
2016,11,08,15,33,14.20
2016,11,08,15,34,14.20
2016,11,08,15,35,18.00
2016,11,08,15,36,18.00
2016,11,08,15,37,18.00
2016,11,08,15,38,17.40
2016,11,08,15,39,16.00
2016,11,08,15,40,15.20
2016,11,08,15,41,14.00
2016,11,08,15,42,14.00
2016,11,08,15,43,12.90
2016,11,08,15,44,12.00
2016,11,08,15,45,12.00
2016,11,08,15,46,11.20
2016,11,08,15,47,11.00
2016,11,08,15,48,9.20
2016,11,08,15,49,9.00
2016,11,08,15,50,9.00
2016,11,08,15,51,9.00
2016,11,08,15,52,9.00
2016,11,08,15,53,9.60
2016,11,08,15,54,10.30
2016,11,08,15,55,9.00
2016,11,08,15,56,9.00
2016,11,08,15,57,9.00
2016,11,08,15,58,7.80
2016,11,08,15,59,7.00
2016,11,08,16,00,7.00
2016,11,08,16,01,7.00
2016,11,08,16,02,7.00
2016,11,08,16,03,8.80
2016,11,08,16,04,7.00
2016,11,08,16,05,6.80
2016,11,08,16,06,5.00
2016,11,08,16,07,3.80
2016,11,08,16,08,0.00
2016,11,08,16,09,0.00
2016,11,08,16,10,0.00
2016,11,08,16,11,0.00
2016,11,08,16,12,0.00
2016,11,08,16,13,0.00
2016,11,08,16,14,0.00
2016,11,08,16,15,0.00
2016,11,08,16,16,0.00
2016,11,08,16,17,0.00
2016,11,08,16,18,0.00
2016,11,08,16,19,0.00
2016,11,08,16,20,0.00
2016,11,08,16,21,0.00
2016,11,08,16,22,0.00
2016,11,08,16,23,0.00
2016,11,08,16,24,0.00
2016,11,08,16,25,0.00
2016,11,08,16,26,0.00
2016,11,08,16,27,0.00
2016,11,08,16,28,0.00
2016,11,08,16,29,0.00
2016,11,08,16,30,0.00
2016,11,08,16,31,0.00
2016,11,08,16,32,0.00
2016,11,08,16,33,0.00
2016,11,08,16,34,0.00
2016,11,08,16,35,0.00
2016,11,08,16,36,0.00
2016,11,08,16,37,0.00
2016,11,08,16,38,0.00
2016,11,08,16,39,0.00
2016,11,08,16,40,0.00
2016,11,08,16,41,0.00
2016,11,08,16,42,0.00
2016,11,08,16,43,0.00
2016,11,08,16,44,0.00
2016,11,08,16,45,0.00
2016,11,08,16,46,0.00
2016,11,08,16,47,0.00
2016,11,08,16,48,0.00
2016,11,08,16,49,0.00
2016,11,08,16,50,0.00
2016,11,08,16,51,0.00
2016,11,08,16,52,0.00
2016,11,08,16,53,0.00
2016,11,08,16,54,0.00
2016,11,08,16,55,0.00
2016,11,08,16,56,0.00
2016,11,08,16,57,0.00
2016,11,08,16,58,0.00
2016,11,08,16,59,0.00
2016,11,08,17,00,0.00
2016,11,08,17,01,0.00
2016,11,08,17,02,0.00
2016,11,08,17,03,0.00
2016,11,08,17,04,0.00
2016,11,08,17,05,0.00
2016,11,08,17,06,0.00
2016,11,08,17,07,0.00
2016,11,08,17,08,0.00
2016,11,08,17,09,0.00
2016,11,08,17,10,0.00
2016,11,08,17,11,0.00
2016,11,08,17,12,0.00
2016,11,08,17,13,0.00
2016,11,08,17,14,0.00
2016,11,08,17,15,0.00
2016,11,08,17,16,0.00
2016,11,08,17,17,0.00
2016,11,08,17,18,0.00
2016,11,08,17,19,0.00
2016,11,08,17,20,0.00
2016,11,08,17,21,0.00
2016,11,08,17,22,0.00
2016,11,08,17,23,0.00
2016,11,08,17,24,0.00
2016,11,08,17,25,0.00
2016,11,08,17,26,0.00
2016,11,08,17,27,0.00
2016,11,08,17,28,0.00
2016,11,08,17,29,0.00
2016,11,08,17,30,0.00
2016,11,08,17,31,0.00
2016,11,08,17,32,0.00
2016,11,08,17,33,0.00
2016,11,08,17,34,0.00
2016,11,08,17,35,0.00
2016,11,08,17,36,0.00
2016,11,08,17,37,0.00
2016,11,08,17,38,0.00